Regional Weather Roundup
Issued by NWS Northern Indiana

Home | Current Version | Previous Version | Graphics & Text | Print | Product List | Glossary On
Versions: 1 2 3 4 5 6 7 8 9 10 11 12 13 14 15 16 17 18 19 20 21 22 23 24 25 26 27 28 29 30 31 32 33 34 35 36 37 38 39 40 41 42 43 44 45 46 47 48 49 50
000
ASUS43 KIWX 021710
RWRIWX

KIWX WEATHER ROUNDUP
NATIONAL WEATHER SERVICE NORTHERN INDIANA
100 PM EDT MON MAY 02 2016

NOTE: "FAIR" INDICATES FEW OR NO CLOUDS BELOW 12,000 FEET WITH NO
SIGNIFICANT WEATHER AND/OR OBSTRUCTIONS TO VISIBILITY.

* THESE STATIONS ARE NOT UNDER NWS QUALITY CONTROL. THEY ALSO MAY NOT
  REPORT WEATHER SUCH AS PRECIPITATION OR FOG.

INZ001>027-021800-
NORTHERN INDIANA

CITY           SKY/WX    TMP DP  RH WIND       PRES   REMARKS
GARY*          MOSUNNY   52  46  82 N14       30.06R
VALPARAISO     CLOUDY    52  44  74 N7        30.04R
MICHIGAN CITY* PTSUNNY   50  46  87 N10       30.04R
LAPORTE*       CLOUDY    53  46  79 E5        30.03S
KNOX*          CLOUDY    50  41  71 N8        30.03R
SOUTH BEND     CLOUDY    50  44  80 E3        30.04R
ELKHART*       CLOUDY    50  48  93 NE7       30.02F
GOSHEN         CLOUDY    50  46  86 NE6       30.02S
MONTICELLO*    CLOUDY    49  45  84 N6        30.02S
LOGANSPORT*    DRIZZLE   48  48 100 NE3       30.03S
ROCHESTER*     CLOUDY    50  48  93 NE3       30.03R
WARSAW*        CLOUDY    48  45  87 NE7       30.02R
ANGOLA*        CLOUDY    46  37  71 NE6       30.01F
FORT WAYNE     CLOUDY    50  47  89 NE8       30.02R
HUNTINGTON*    CLOUDY   N/A N/A N/A E5        30.01R
PERU/GRISSOM   DRIZZLE   50  50 100 NE8       30.00S FOG
MARION*        CLOUDY    51  49  93 NE7       30.01S FOG

$$
INZ028>050-021800-
CENTRAL INDIANA

CITY           SKY/WX    TMP DP  RH WIND       PRES   REMARKS
LAFAYETTE      CLOUDY    50  47  89 N6        30.02R
KOKOMO*        CLOUDY    50  46  87 NE8       30.00R
MUNCIE*        CLOUDY    55  50  83 NE7       29.98F
INDIANAPOLIS   CLOUDY    55  49  80 W9        29.99R

$$
MIZ043>046-050>051-056>058-064>065-071>073-077>080-021800-
SOUTHWEST LOWER MICHIGAN

CITY           SKY/WX    TMP DP  RH WIND       PRES   REMARKS
BATTLE CREEK   CLOUDY    51  43  74 NE10      30.03R
BENTON HARBOR  PTSUNNY   53  42  66 N8        30.03S
COLDWATER*     CLOUDY    50  46  86 NE7       30.02S
HILLSDALE*     CLOUDY    47  44  87 NE5       30.01R
HOLLAND        PTSUNNY   56  41  57 E7        30.05S
GRAND RAPIDS   PTSUNNY   56  43  61 E12       30.05R
KALAMAZOO      CLOUDY    52  42  69 NE6       30.03S
STURGIS*       CLOUDY    48  44  86 NE5       30.01F
THREE RIVERS*  CLOUDY    50  46  84 E7        30.03F

$$
OHZ001>008-015>018-024>025-021800-
NORTHWEST OHIO

CITY           SKY/WX    TMP DP  RH WIND       PRES   REMARKS
WAUSEON*         N/A     50 N/A N/A NE7       30.01S
DEFIANCE       CLOUDY    51  46  83 E5        30.01S
FINDLAY        CLOUDY    52  43  71 NE14      29.98F
TOLEDO EXPRESS CLOUDY    51  46  83 NE8       30.01R
TOLEDO METCALF CLOUDY    53  45  74 NE10      30.02S
LIMA           CLOUDY    52  48  86 E6        29.98F

$$
AND FOR LAKE MICHIGAN COASTAL AND OPEN LAKE BUOY OBSERVATIONS

STATION/POSITION TEMP    WIND        PRES    VSBY  WAVE
                 AIR SEA DIR/SP/G                  HT/PER
                 (F)     (DEG/KT/KT) (MB)    (MI)  (FT/S)
CALUMET HARBOR    46     340/ 14/ 19 1017.1F
MICHIGAN CITY     45     340/ 14/ 15   N/A
BURNS HARBOR      44      20/ 12/ 17 1017.6R
SAINT JOSEPH      48     340/  9/ 13 1017.3F
SOUTH LAKE BUOY   41 41  350/  6/  6 1018.2F         1/ 4
4 MI NW BRIDGMAN  46 48                N/A           2/ 4

$$
&&




USA.gov is the U.S. government's official web portal to all federal, state and local government web resources and services.